EUTELSAT KA-SAT 9A

Last updated on Sun Jun 21 2026 00:03:05 GMT+0000 (Coordinated Universal Time)

1 37258U 10069A 26171.32244802 .00000057 00000+0 00000+0 0 9993 2 37258 0.0610 12.2628 0003782 114.8672 266.4917 1.00269176 44032
UTC large
Height (km)
Speed (km/s)
/
Latitude / Longitude
Inclination (degrees)
Orbital Period (minutes)
Azimuth
Elevation
Range (km)
Doppler Factor

Next 0 passes for location: London (51.5072 / 0.1276)

No passes found over London.
EUTELSAT KA-SAT 9A